User: anonymous
Location: Coffee Creek Observatory
(38.8077°N, 94.7179°W)
Time: 00:32:37
(UTC-05:00)
Language:

Lacrosse 4 Rocket - Orbit

View from above orbital plane
View from above orbital plane
View from above satellite
View from above satellite

Ground track
Ground track

The orbit data is extracted from the following two-line orbital elements,

1 26474U 00047B   14107.19923282  .00001957  00000-0  19475-3 0  5978
2 26474 067.9952 149.7635 0058713 157.3279 203.0475 14.92631974742501
Epoch (UTC): 17 April 2014 04:46:53
Eccentricity: 0.0058713
inclination: 67.9952°
perigee height: 549 km
apogee height: 630 km
right ascension of ascending node: 149.7635°
argument of perigee: 157.3279°
revolutions per day: 14.92631974
mean anomaly at epoch: 203.0475°
orbit number at epoch: 74250

The dashed part of the orbit path shows where the satellite is in the earth's shadow,  

DLR